Location: Namasale
(1.5000°N, 32.6167°E)
Time: 17:22:26
(UTC+00:00)

Vanguard 1 Rocket - Pass Details

Date: 23 April 2021
Orbit: 651 x 4225 km, 34.3° (Epoch: 17 May)

Event Time Altitude Azimuth Distance (km) Brightness Sun altitude
Rises 16:28:19 0° 330° (NNW) 3,243 11.0 -9.5°
Reaches altitude 10° 16:30:39 10° 342° (NNW) 2,522 10.1 -10.1°
Maximum altitude 16:35:49 30° 44° (NE) 1,971 8.8 -11.4°
Enters shadow 16:42:08 15° 95° (E) 3,512 9.7 -12.9°
Drops below altitude 10° 16:44:12 10° 101° (E) 4,176 - -13.4°
Sets 16:49:20 0° 110° (ESE) 5,827 - -14.6°
